Simultaneous Nadir Overpasses (SNOs) Predictions

Prediction of SNOs between GOES-16 and TERRA Satellite Orbit:

Table of predicted SNOs for the next 14.0 days since TLE Epoch: 8/12/2023
Index Date Time (GOES-16) GOES-16 Lat,Lon TERRA Lat,Lon Distance(km) Time Diff (sec)
1 08/14/2023 02:57:51 0.02, -75.21 0.38, -73.40 205.32 80
2 08/14/2023 15:18:03 -0.03, -75.23 0.63, -78.31 350.79 80
3 08/16/2023 14:59:01 -0.01, -75.24 -0.21, -74.36 100.50 80
4 08/17/2023 03:22:00 0.01, -75.24 -0.84, -79.30 461.35 80
5 08/19/2023 03:05:38 0.01, -75.26 0.02, -75.35 9.54 80
6 08/21/2023 02:46:35 0.01, -75.29 0.82, -71.39 443.46 80
7 08/21/2023 15:09:26 -0.01, -75.31 0.22, -76.29 111.83 80
8 08/23/2023 14:50:24 -0.01, -75.35 -0.67, -72.35 341.51 80
9 08/24/2023 03:13:21 0.01, -75.34 -0.42, -77.27 219.98 80
